Regional Weather Roundup
Issued by NWS Boston, MA

Current Version | Previous Version | Text Only | Print | Product List | Glossary Off
Versions: 1 2 3 4 5 6 7 8 9 10 11 12 13 14 15 16 17 18 19 20 21 22 23 24 25 26 27

000
ASUS41 KBOX 241710
RWRBOX

REGIONAL WEATHER ROUNDUP
NATIONAL WEATHER SERVICE TAUNTON MA
100 PM EDT FRI MAR 24 2017

NOTE:  "FAIR" INDICATES FEW OR NO CLOUDS BELOW 12,000 FEET WITH NO
SIGNIFICANT WEATHER AND/OR OBSTRUCTIONS TO VISIBILITY.

MAZALL-241800-
EASTERN MASSACHUSETTS

CITY           SKY/WX    TMP DP  RH WIND       PRES   REMARKS
BOSTON         LGT RAIN  40  27  59 S20G37    30.32F WCI  30
BEVERLY        CLOUDY    39  27  62 SW13G24   30.31F WCI  31
LAWRENCE       LGT SNOW  37  25  61 SW20G29   30.32F WCI  27
BEDFORD        LGT SNOW  37  26  64 SW21G33   30.30F SQUALL  WCI  26
BLUE HILL        N/A     37  24  59 S16G30    30.29F WCI  28
NORWOOD        CLOUDY    42  25  50 S16G22    30.33F
MARSHFIELD     CLOUDY    43  27  52 SW13G25   30.35F
PLYMOUTH       CLOUDY    40  27  59 S12G21    30.37F
TAUNTON        CLOUDY    42  26  53 S14G23    30.36F
NEW BEDFORD    CLOUDY    42  28  57 SW17G26   30.38F
$$

MAZALL-241800-
CAPE COD AND THE ISLANDS

CITY           SKY/WX    TMP DP  RH WIND       PRES   REMARKS
FALMOUTH       CLOUDY    39  27  60 MISG      30.41F
HYANNIS        CLOUDY    39  30  70 S9        30.40F
CHATHAM        CLOUDY    39  27  62 SW9G17    30.43F
PROVINCETOWN   CLOUDY    39  24  55 S14G22    30.40F WCI  31
NANTUCKET      CLOUDY    39  27  62 S16       30.43F WCI  30
MARTHAS VNYRD  CLOUDY    41  29  62 S17       30.41F
$$

MAZALL-241800-
CENTRAL AND WESTERN MASSACHUSETTS

CITY           SKY/WX    TMP DP  RH WIND       PRES   REMARKS
WORCESTER      SNOW      32  28  85 S15       30.25F VSB 1/2 WCI  22
FITCHBURG      LGT SNOW  35  31  85 S8        30.27F VSB 1   WCI  29
ORANGE         LGT SNOW  31  30  96 S8        30.24F FOG     WCI  23
SPRINGFIELD    FLURRIES  37  28  70 S14       30.25F WCI  29
WESTFIELD      LGT SNOW  37  28  70 S10       30.26F WCI  30
NORTH ADAMS    CLOUDY    34  26  72 VRB6      30.21F WCI  29
PITTSFIELD     MIX PCPN  32  24  72 S15G22    30.18F WCI  22
$$

RIZALL-241800-
RHODE ISLAND

CITY           SKY/WX    TMP DP  RH WIND       PRES   REMARKS
PROVIDENCE     CLOUDY    42  25  50 SW16G25   30.36F
NEWPORT        CLOUDY    41  30  65 S12G23    30.38F
BLOCK ISLAND   CLOUDY    42  31  64 SW18      30.38F
SMITHFIELD     CLOUDY    40  24  53 SW9G17    30.32F
WESTERLY       CLOUDY    44  31  60 SW14G24   30.37F
$$

CTZALL-241800-
CONNECTICUT

CITY           SKY/WX    TMP DP  RH WIND       PRES   REMARKS
BRADLEY INTL   LGT RAIN  38  30  73 S13       30.28F WCI  30
HARTFORD       CLOUDY    41  27  57 S15G25    30.30F
BRIDGEPORT     CLOUDY    46  30  53 SW16      30.33F
DANBURY        LGT RAIN  42  26  53 S14G28    30.29F
GROTON         CLOUDY    43  31  62 S20       30.34F
NEW HAVEN      CLOUDY    43  29  57 S13       30.34F
CHESTER        NOT AVBL
MERIDEN        CLOUDY    44  26  49 S15G26    30.31F
WILLIMANTIC    LGT RAIN  42  27  55 S13       30.32F
OXFORD         CLOUDY    41  21  45 SW13G21   30.30F
$$

MEZ002-015-021-024-NHZ003-005-008-011-012-014-VTZ005-008-241800-
NORTHERN NEW ENGLAND

CITY           SKY/WX    TMP DP  RH WIND       PRES   REMARKS
PORTLAND ME    LGT SNOW  31  28  89 S9        30.32F FOG     WCI  23
BANGOR ME      LGT SNOW  28  25  88 S15       30.31F VSB 1   WCI  16
CONCORD NH     LGT SNOW  30  27  88 S10       30.27F FOG     WCI  21
MANCHESTER NH  LGT SNOW  35  25  66 S14G24    30.26F WCI  26
NASHUA NH      NOT AVBL
PORTSMOUTH NH  LGT SNOW  32  30  90 S8        30.29F VSB 3/4 WCI  25
JAFFREY NH     LGT SNOW  31  28  89 S8        30.22F FOG     WCI  23
KEENE NH       LGT SNOW  32  28  85 S9        30.24F FOG     WCI  24
BURLINGTON VT  LGT SNOW  31  25  78 S10       30.13F VSB 1   WCI  22
MT. WASHINGTON SNOW      12  12 100 W41         N/A  VSB 0   WCI -12
$$

NYZ052-076-241800-
EASTERN NEW YORK

CITY           SKY/WX    TMP DP  RH WIND       PRES   REMARKS
ALBANY         CLOUDY    36  23  59 S16       30.19F WCI  26
NEW YORK CITY  CLOUDY    49  22  34 S14G26    30.32F
$$

ANZALL-241800-
MARINE OBSERVATIONS

STATION/POSITION TIME  TEMP    WIND        PRES    VSBY  WAVE
                       AIR SEA DIR/SP/G                  HT/PER
                 (UTC) (F)     (DEG/KT/KT) (MB)    (MI)  (FT/S)
BOSTON BUOY      1550   39 40  150/ 16/ 17 1029.0          2/ 4
BUZZARDS BAY     1600   40     210/ 23/ 25 1030.6F
NANTUCKET SOUND  1650      38              1029.9F         2/ 3
MASS BAY-STELLWA 1604   38 39  160/ 16/ 17 1028.1F         2/ 4
ISLE OF SHOALS   1600   35     180/ 19/ 22 1028.2F
S OF BLOCK IS    1655      40                N/A           3/ 5
$$

......................KEY.........................
  SKY/WX - SKY CONDITION/PRESENT WEATHER
  TMP    - TEMPERATURE IN FAHRENHEIT
  DWPT   - DEWPOINT IN FAHRENHEIT
  RH     - RELATIVE HUMIDITY IN PERCENT
  WIND   - DIRECTION AND SPEED IN MPH
  PRES   - MEAN SEA LEVEL PRESSURE IN INCHES OF HG
  WCI    - WIND CHILL INDEX
  VSB    - VISIBILITY IN MILES
  HX     - HEAT INDEX
  TC     - TEMPERATURE IN CELSIUS
  VRB    - VARIABLE WIND DIRECTION
  N/A    - NOT AVAILABLE




USA.gov is the U.S. government's official web portal to all federal, state and local government web resources and services.